Skip to main content

Lamas de Mouro, P.Ribeiro

ID 1210606 · 42.0333, -8.1833 map

Latest reading · 2026-05-09 19:00 (Europe/Lisbon)

Temperature
9.2 °C
Humidity
91 %
Pressure
1,006.8 hPa
Precipitation
1.2 mm
Radiation
0 W/m²
Wind speed
Wind direction
No wind

24-hour history

Time (Europe/Lisbon) Temp Humidity Pressure Rain Wind Dir
2026-05-09 19:00 9.2 °C 91 % 1,006.8 1.2 mm
2026-05-09 18:00 8.6 °C 94 % 1,006.5 2.4 mm
2026-05-09 17:00 9.1 °C 89 % 1,006.1 4.1 mm
2026-05-09 16:00 11.8 °C 76 % 1,004.4 0.0 mm
2026-05-09 15:00 11.3 °C 75 % 1,004.5 0.0 mm
2026-05-09 14:00 11.2 °C 77 % 1,004.6 0.0 mm
2026-05-09 13:00 10.6 °C 81 % 1,005.0 0.0 mm
2026-05-09 12:00 11.4 °C 74 % 1,005.1 0.1 mm
2026-05-09 11:00 11.6 °C 73 % 1,005.1 0.0 mm
2026-05-09 10:00 11.0 °C 75 % 1,005.4 0.0 mm
2026-05-09 09:00 10.2 °C 79 % 1,005.6 0.0 mm
2026-05-09 08:00 9.8 °C 81 % 1,005.9 0.0 mm
2026-05-09 07:00 9.2 °C 84 % 1,006.0 0.0 mm
2026-05-09 06:00 9.3 °C 84 % 1,006.2 0.1 mm
2026-05-09 05:00 9.6 °C 81 % 1,006.2 0.0 mm
2026-05-09 04:00 9.6 °C 81 % 1,006.2 0.0 mm
2026-05-09 03:00 10.5 °C 73 % 1,006.6 0.2 mm
2026-05-09 02:00 11.0 °C 67 % 1,006.6 0.0 mm
2026-05-09 01:00 10.4 °C 70 % 1,007.6 0.0 mm
2026-05-09 00:00 9.7 °C 75 % 1,008.4 0.0 mm
2026-05-08 23:00 8.3 °C 83 % 1,009.7 0.0 mm
2026-05-08 22:00 8.0 °C 84 % 1,009.9 0.0 mm
2026-05-08 21:00 9.6 °C 79 % 1,009.3 0.0 mm
2026-05-08 20:00 11.2 °C 68 % 1,008.7 0.0 mm